Probability
5 5 4 3 3 4 3 1 0 0 1 3 5 6 7 6 2 2 2 1 0 0 0 0 0 1 1 1 0 0 1 2 3 2 1 1 2 4
4 4 3 3 3 3 2 1 0 0 1 2 5 6 7 4 2 2 3 1 0 0 0 0 0 0 0 0 0 0 0 1 3 2 1 0 1 2
4 3 3 4 3 2 2 1 1 1 1 1 3 7 7 5 3 4 5 2 0 0 0 0 0 0 0 0 0 0 0 1 2 2 1 0 0 1
5 5 6 6 5 4 3 2 2 3 2 1 3 6 8 7 6 5 4 2 1 0 0 0 0 0 0 0 0 0 0 0 1 1 0 0 0 0
6 6 7 8 7 6 4 3 3 4 4 3 3 4 5 7 6 4 2 2 1 0 0 0 0 0 0 0 0 0 0 0 0 0 0 0 0 0
7 7 7 7 6 5 4 3 2 4 6 5 4 3 3 5 6 4 2 2 1 0 0 0 0 0 0 0 0 0 0 0 0 0 0 0 0 0
9 8 6 5 4 4 3 2 3 4 6 5 4 3 2 4 5 4 2 2 1 0 0 0 0 0 0 0 0 0 0 0 0 0 0 0 0 0
8 7 5 4 3 2 1 1 2 3 3 3 3 3 3 4 5 4 2 1 1 0 0 0 0 0 0 0 0 0 0 0 0 0 0 0 0 0
7 6 5 4 3 3 1 1 2 2 1 2 3 3 4 5 4 3 2 2 2 1 0 1 1 1 0 0 0 0 0 0 0 0 0 0 0 0
6 6 6 5 4 3 2 3 3 2 1 1 2 2 3 4 4 3 2 2 1 0 0 1 2 2 1 0 0 0 0 0 0 0 0 0 0 0
6 7 7 5 3 2 2 3 4 3 1 1 0 1 1 2 2 1 1 1 0 0 0 1 2 2 1 0 0 0 0 0 0 0 0 0 0 0
5 6 5 3 1 0 1 2 2 2 2 1 1 0 0 1 1 0 0 0 0 0 0 0 1 1 1 0 0 0 0 0 0 0 0 0 0 0
4 5 4 1 0 0 0 1 1 1 1 1 1 1 1 0 0 0 0 0 0 0 0 0 0 0 0 0 0 0 0 0 0 0 0 0 0 0
3 4 3 1 0 0 0 0 0 0 0 1 2 2 1 1 1 1 0 0 0 0 0 0 1 1 0 0 0 0 0 0 0 0 0 0 0 0
1 1 1 0 0 0 0 0 0 0 0 1 2 2 3 3 3 3 1 0 0 0 0 0 1 2 1 0 0 0 0 0 0 0 0 0 0 0
0 0 0 0 0 0 0 0 0 0 0 0 1 2 3 5 5 5 3 1 0 0 0 0 1 2 1 0 0 0 0 0 0 0 0 0 0 0
0 0 0 0 0 0 0 0 1 0 0 1 1 2 4 5 5 5 4 2 1 0 0 0 0 1 1 0 0 0 0 0 0 0 0 0 0 0
0 0 0 0 0 0 0 0 0 0 1 2 3 3 4 5 5 5 4 2 1 0 0 0 0 0 0 0 0 0 0 0 0 0 0 0 0 0
0 0 0 0 0 0 1 1 0 1 2 4 4 4 4 5 5 4 2 1 1 0 0 0 0 0 0 0 0 0 0 0 0 0 0 0 0 0
0 0 0 0 0 1 2 2 1 1 3 5 5 4 3 4 3 2 1 0 0 0 0 0 0 0 0 0 0 0 0 0 0 0 0 0 0 0
0 0 0 0 0 1 2 3 3 2 3 5 5 4 3 3 1 1 0 0 0 0 0 0 0 0 0 0 0 0 0 0 0 0 0 0 0 0
0 0 0 0 0 1 1 2 2 3 3 3 2 2 2 2 1 1 0 0 0 0 0 0 0 0 0 0 0 0 0 0 0 0 0 0 0 0
0 0 0 0 0 0 0 1 1 2 3 2 1 1 1 1 2 2 1 0 0 0 0 0 0 0 0 0 0 0 0 0 0 0 0 0 0 0
Wind_Speed
4 4 3 3 3 3 3 3 3 4 4 3 2 3 3 2 6 5 5 9 11 12 11 11 11 10 10 9 9 8 8 8 8 8 7 8 8 8
3 3 3 4 3 2 3 3 4 4 4 3 3 3 3 4 5 4 4 9 11 12 12 12 12 11 11 10 10 9 8 8 8 8 8 8 8 8
4 4 5 4 3 3 3 3 3 3 4 4 3 3 4 3 3 3 4 5 6 11 12 13 12 12 12 11 11 10 9 9 8 9 9 9 8 8
5 4 5 4 4 3 3 3 3 4 4 5 3 3 3 4 4 4 4 4 4 8 11 13 13 13 12 12 11 10 10 9 9 9 9 9 9 8
4 5 5 5 5 4 4 4 4 4 3 3 4 3 3 3 3 4 4 3 4 5 8 11 12 12 12 12 12 11 11 10 10 10 9 9 9 8
4 4 5 5 6 5 4 4 4 4 3 3 4 4 3 3 3 3 2 2 3 4 5 6 8 10 11 12 12 12 11 11 10 10 9 9 9 9
4 4 4 5 6 5 5 4 4 3 3 3 4 3 3 3 3 3 3 3 3 3 2 3 4 5 6 8 10 11 11 11 11 11 10 10 10 9
3 3 4 4 5 6 7 7 6 5 5 4 4 4 5 4 3 3 3 3 3 3 3 3 3 4 4 5 9 11 12 12 12 11 11 10 10 10
4 4 5 4 4 3 5 6 7 9 9 6 6 5 5 4 4 4 4 4 4 3 3 3 3 4 3 4 9 10 11 12 12 11 11 11 11 11
5 5 4 4 5 4 4 4 5 5 7 7 6 6 6 4 5 5 5 4 3 3 3 3 3 2 3 3 8 11 11 12 11 11 11 11 10 11
5 5 4 4 4 4 3 4 4 4 4 6 7 7 6 6 4 3 3 3 3 3 2 2 2 1 2 2 5 9 10 10 10 11 11 10 10 9
3 3 4 3 2 3 3 3 4 3 3 2 2 4 4 5 7 6 5 4 3 2 2 2 2 1 1 2 2 3 5 7 9 9 10 10 9 5
3 2 1 1 2 3 3 3 4 3 3 3 3 3 3 3 3 4 4 4 3 2 2 2 1 1 2 1 1 3 3 3 4 5 7 8 9 7
3 2 1 1 2 3 3 4 5 3 3 3 3 3 2 2 2 2 3 3 3 3 3 2 2 2 2 2 2 2 2 2 3 3 3 5 7 8
2 3 4 4 3 3 5 6 4 3 3 3 3 2 2 2 1 1 2 2 3 4 4 3 3 3 3 3 2 2 2 2 3 2 3 3 3 3
2 3 4 5 5 4 4 4 4 4 3 3 2 1 1 1 2 1 2 1 2 2 2 3 3 4 3 3 3 3 2 2 2 2 2 2 2 3
2 3 2 2 2 2 3 3 3 2 2 2 2 1 1 1 2 2 2 2 2 2 2 1 1 2 2 2 2 2 2 1 2 2 1 1 1 1
1 3 3 3 3 2 2 2 2 2 2 2 2 1 1 1 1 1 1 2 2 2 2 2 2 1 0 1 1 1 1 1 1 1 1 1 1 1
2 3 3 3 3 2 2 2 1 1 1 1 1 1 1 1 1 2 2 1 1 1 1 1 2 2 2 1 1 1 1 1 1 1 1 1 1 1
3 3 3 2 2 1 1 0 1 1 1 1 1 1 1 1 1 2 2 2 2 1 1 1 1 1 1 1 1 2 3 3 2 2 1 1 0 1
3 3 3 2 1 1 1 1 1 1 0 0 0 1 1 1 2 2 1 2 1 1 1 1 1 2 1 1 1 1 1 2 3 2 2 2 1 1
3 2 2 1 1 1 1 1 1 1 1 1 1 1 1 1 1 2 2 2 1 1 1 1 2 1 1 1 2 1 1 1 1 1 0 1 2 3
2 2 1 1 2 2 1 1 1 1 0 0 1 1 1 1 1 1 2 1 1 1 0 1 1 1 1 1 1 1 1 1 1 2 0 2 3 4
Wind_Direction
235 229 235 254 250 250 251 228 232 247 247 232 228 214 206 187 181 190 185 193 198 200 201 204 209 213 216 220 222 224 226 229 233 237 243 246 248 253
221 227 234 247 255 248 252 250 242 241 255 242 228 208 208 220 197 192 189 193 204 205 203 205 208 211 214 218 220 221 223 223 226 232 238 244 246 250
229 224 226 232 237 245 248 255 254 239 244 252 228 214 207 216 200 196 193 192 200 206 203 204 207 210 213 216 218 217 217 220 223 229 234 240 245 248
232 227 229 232 226 235 238 249 257 245 230 240 239 228 224 210 199 206 210 209 200 206 203 205 207 209 211 212 213 213 213 216 220 224 229 234 240 244
236 231 233 232 238 237 238 242 247 250 235 237 240 229 223 223 211 220 217 212 218 213 205 204 206 209 209 210 211 211 210 212 214 217 222 228 234 239
247 239 238 232 232 235 238 237 243 248 240 242 237 230 221 217 209 210 223 218 228 227 215 199 200 205 208 209 209 208 206 208 212 217 221 226 229 233
253 245 245 237 236 233 240 235 237 243 248 247 242 233 227 211 216 211 224 232 235 219 196 196 191 197 206 208 206 203 202 205 210 216 221 224 227 230
263 257 251 234 233 229 238 239 236 235 243 244 249 237 234 226 224 222 218 230 246 211 190 216 202 202 199 193 195 196 203 208 211 214 218 221 224 229
263 258 260 256 240 235 236 236 242 245 236 236 244 248 244 230 220 226 227 228 239 216 195 223 206 207 202 201 191 198 205 211 213 212 214 219 223 227
252 254 256 254 253 246 245 245 245 244 232 229 235 241 244 238 224 225 225 232 237 225 198 215 207 205 205 190 200 206 209 210 212 215 218 220 223 226
247 250 247 244 250 237 236 244 259 266 256 236 225 229 239 244 235 227 222 217 237 237 215 201 208 204 211 220 211 210 207 209 213 217 221 223 226 226
256 248 246 248 230 216 223 241 254 265 272 276 256 236 234 242 232 217 221 219 226 236 228 193 194 193 235 222 199 202 209 217 219 220 218 219 218 217
278 275 277 243 237 235 231 236 241 251 259 254 247 242 235 231 224 216 216 212 207 228 215 184 195 218 216 222 221 208 202 203 210 219 219 213 212 206
284 287 307 340 274 261 252 247 250 252 241 242 245 244 231 225 221 203 198 200 194 208 221 197 202 214 220 238 237 209 208 207 203 199 194 201 215 220
296 302 307 291 281 259 241 245 245 237 236 233 239 241 235 218 202 188 191 192 212 228 225 207 198 203 206 219 223 213 221 221 204 196 196 196 204 207
300 310 293 270 266 263 261 238 231 229 226 231 230 219 202 201 208 204 197 197 215 231 227 211 201 196 209 212 211 216 209 204 205 200 195 204 204 204
307 291 285 276 259 249 247 243 227 220 220 230 225 214 200 205 218 211 202 205 220 221 218 202 177 165 179 198 207 210 206 205 194 181 189 210 218 214
277 276 272 263 263 265 263 256 240 221 216 207 204 210 207 212 229 230 217 214 231 229 213 194 166 157 173 9 312 216 195 210 193 182 184 194 234 227
243 261 261 261 260 252 249 247 260 250 202 196 197 207 217 220 223 229 229 223 233 228 219 206 185 191 206 226 260 269 224 208 195 196 205 210 225 225
252 263 272 271 268 261 259 249 256 249 221 210 189 185 224 244 240 241 237 229 232 222 223 221 195 191 196 204 212 249 237 218 201 203 212 219 222 146
271 268 271 280 291 295 296 266 245 243 239 234 242 223 224 238 254 257 250 241 245 222 214 206 175 159 157 140 171 227 239 220 202 196 196 196 220 226
281 284 293 317 313 294 276 269 251 227 226 247 263 237 218 229 242 248 254 245 228 224 213 166 159 166 187 195 205 217 237 203 190 157 3 219 201 204
292 303 301 290 290 289 286 267 254 251 216 294 301 277 259 248 241 238 249 248 232 211 188 149 156 183 188 183 200 204 203 209 158 134 306 269 215 197